Regional Weather Roundup
Issued by NWS

Home | Current Version | Previous Version | Graphics & Text | Print | Product List | Glossary On
Versions: 1 2 3 4 5 6 7 8 9 10 11 12 13 14 15 16 17 18 19 20 21 22 23 24 25 26 27 28 29 30 31 32 33 34 35 36 37 38 39 40 41 42 43 44 45 46 47 48 49 50
000
ASUS43 KDTX 231710
RWRMI
MICHIGAN HOURLY REGIONAL WEATHER ROUNDUP
NATIONAL WEATHER SERVICE DETROIT/PONTIAC MI
100 PM EDT MON APR 23 2018

NOTE: "FAIR" INDICATES FEW OR NO CLOUDS BELOW 12,000 FEET WITH NO
SIGNIFICANT WEATHER AND/OR OBSTRUCTION TO VISIBILITY.

MIZ047>049-052>055-059>063-066>070-074>076-081>083-231800-
SOUTHEAST LOWER MICHIGAN

CITY           SKY/WX    TMP DP  RH WIND       PRES   REMARKS
ADRIAN         FAIR      66  43  43 SE9       30.20F
ALMA           FAIR      63  39  41 NE12      30.22F
ANN ARBOR      FAIR      66  42  41 VRB6      30.21F
BAD AXE        FAIR      66  28  23 SE9G16    30.27F
CARO           FAIR      68  34  28 E9G16     30.23F
DETROIT CITY   FAIR      64  41  42 E10       30.23F
DETROIT        FAIR      66  41  40 S10       30.22F
FLINT          FAIR      66  40  38 E14       30.21F
GROSSE ILE     FAIR      63  42  46 S5        30.21F
HILLSDALE      FAIR      64  39  39 E6        30.18F
HOWELL         FAIR      65  37  34 E12       30.21F

CITY           SKY/WX    TMP DP  RH WIND       PRES   REMARKS
JACKSON        FAIR      65  40  39 E9        30.19F
LAMBERTVILLE   FAIR      62  42  49 E7        30.19F
LANSING        FAIR      67  40  37 E8        30.21F
LAPEER         FAIR      65  38  37 SE8       30.24F
MASON          FAIR      68  32  26 E6        30.19F
MONROE         FAIR      60  39  46 E8        30.20F
MT. CLEMENS    PTSUNNY   63  42  46 E10       30.23F
PONTIAC        PTSUNNY   63  39  41 E6        30.22F
PORT HOPE        N/A     45  36  70 E10       30.26F
PORT HURON     FAIR      66  37  34 E10G16    30.25F
TRI CITIES     FAIR      60  38  43 NE10      30.25F
MIDLAND        FAIR      60  38  44 E9        30.24F
TROY           FAIR      64  36  35 E8        30.25F
SAGINAW HB     FAIR      63  37  39 NE9       30.23F
$$
MIZ043>046-050>051-056>058-064>065-071>073-077>080-231800-
SOUTHWEST LOWER MICHIGAN

CITY           SKY/WX    TMP DP  RH WIND       PRES   REMARKS
BATTLE CREEK   FAIR      66  38  35 E6        30.18F
BENTON HARBOR  FAIR      70  36  28 E13       30.15F
BIG RAPIDS     FAIR      64  12  13 E6G16     30.21F
COLDWATER      FAIR      65  40  39 E7        30.17F
FREMONT        FAIR      67   3   8 E7        30.20F
HOLLAND        FAIR      65  34  31 NE8       30.18F
GRAND RAPIDS   PTSUNNY   64  37  36 E13       30.19F
IONIA          FAIR      63  37  38 E9        30.20F
KALAMAZOO      FAIR      68  36  30 E9        30.18F
LUDINGTON      FAIR      64  26  24 E5        30.21F
MARSHALL       FAIR      64  36  35 E6        30.18F
MOUNT PLEASANT FAIR      66  32  28 NE8G22    30.22F
MUSKEGON       PTSUNNY   68  29  23 E9        30.19F
SOUTH HAVEN    FAIR      69  31  24 E9        30.16F
$$
MIZ016>042-231800-
NORTHERN LOWER MICHIGAN

CITY           SKY/WX    TMP DP  RH WIND       PRES   REMARKS
ALPENA         FAIR      53  26  35 E7        30.30F
BEAVER ISLAND  FAIR      58  21  23 SW9       30.28F
BELLAIRE       FAIR      62  17  17 CALM      30.26F
CADILLAC       FAIR      63  23  21 E7        30.23F
CHARLEVOIX     FAIR      50  26  39 NW3       30.30F
FRANKFORT      FAIR      63  28  25 N9        30.24F
GAYLORD        FAIR      57  11  16 CALM      30.26F
GRAYLING       FAIR      61  20  20 E7        30.24F
HARBOR SPRINGS FAIR      57  24  27 SW5       30.27F
HOUGHTON LAKE  FAIR      65  22  19 MISG      30.24F
MANISTEE       FAIR      64  19  17 NE7       30.22F
OSCODA         FAIR      51  25  36 E7        30.28F
PELLSTON       FAIR      61  23  23 N5        30.27F
ROGERS CITY    FAIR      53  28  38 E7        30.30F
TRAVERSE CITY  PTSUNNY   59  30  33 N5        30.25F
$$
MIZ007>008-015-231800-
EASTERN UPPER MICHIGAN

CITY           SKY/WX    TMP DP  RH WIND       PRES   REMARKS
KINROSS        FAIR      57  23  26 S8        30.28F
MACKINAC ISLAN FAIR      48  31  51 E3        30.28
NEWBERRY       FAIR      51  23  34 SW5       30.26F
S. S. MARIE    FAIR      56  28  34 SE6       30.27F
MUNISING         N/A     60  21  22 SW8       30.22F
$$
MIZ004>006-011>014-085-231800-
CENTRAL UPPER MICHIGAN

CITY           SKY/WX    TMP DP  RH WIND       PRES   REMARKS
MANISTIQUE     FAIR      48  26  41 S8        30.27F
ESCANABA       FAIR      51  27  39 SE8       30.26F
MENOMINEE      FAIR      55  30  38 E7        30.26F
SAWYER-GWINN   SUNNY     55  21  26 SW8       30.23F
$$
MIZ001>003-009>011-084-231800-
WESTERN UPPER MICHIGAN

CITY           SKY/WX    TMP DP  RH WIND       PRES   REMARKS
IRON MOUNTAIN  FAIR      62  22  21 CALM      30.22F
HOUGHTON       FAIR      58  29  33 W8        30.20S
COPPER HARBOR    N/A     50  27  40 CALM      30.19S
IRONWOOD       FAIR      59  32  36 W6        30.22F
$$

ABBREVIATIONS USED IN REMARKS
   TC - TEMPERATURE IN CELSIUS
  WCI - WIND CHILL INDEX
   HX - HEAT INDEX
  VSB - VISIBILITY




USA.gov is the U.S. government's official web portal to all federal, state and local government web resources and services.